Location: Cadeilhan
(42.8161°N, 0.3161°E)
Time: 04:02:40
(UTC+00:00)

Cosmos 1725 Rocket - Pass Details

Date: 18 February 2020
Orbit: 963 x 989 km, 82.9° (Epoch: 30 March)

Event Time Altitude Azimuth Distance (km) Brightness Sun altitude
Rises 05:44:52 0° 353° (N) 3,680 6.9 -13.1°
Reaches altitude 10° 05:47:23 10° 355° (N) 2,733 6.3 -12.6°
Maximum altitude 05:53:40 75° 82° (E) 1,016 4.3 -11.5°
Drops below altitude 10° 05:59:55 10° 167° (SSE) 2,733 6.6 -10.3°
Sets 06:02:27 0° 169° (S) 3,680 7.3 -9.9°
